Weather History for Liberal, KS

Change the Weather History Date:

Sunday, January 27, 2013

  Actual Average Record
Temperature  
Mean Temperature 56 °F -  
Max Temperature 71 °F 50 °F 78 °F (2015)
Min Temperature 37 °F 21 °F -4 °F (1948)
Degree Days  
Heating Degree Days 9    
Growing Degree Days 6 (Base 50)    
Moisture  
Dew Point 37 °F    
Average Humidity 54    
Maximum Humidity 76    
Minimum Humidity 29    
Precipitation  
Precipitation 0.00 in - - ()
Sea Level Pressure  
Sea Level Pressure 29.76 in    
Wind  
Wind Speed 17 mph (SSW)    
Max Wind Speed 28 mph    
Max Gust Speed 37 mph    
Visibility 10 miles    
Events      
Averages and records for this station are not official NWS values.
T = Trace of Precipitation, MM = Missing Value Source: NWS Daily Summary

Daily Weather History Graph

Daily Weather History Graph

Search for Another Location

Airport:

Trip Planner

Search our weather history database for the weather conditions in past years. The results will help you decide how hot, cold, wet, or windy it might be!

Date:

Astronomy

Jan. 27, 2013 Rise Set
Actual Time 7:50 AM CST 6:03 PM CST
Civil Twilight 7:22 AM CST 6:31 PM CST
Nautical Twilight 6:51 AM CST 7:02 PM CST
Astronomical Twilight 6:20 AM CST 7:33 PM CST
Moon 6:57 PM CST (1/27) 7:46 AM CST (1/27)
Length of Visible Light 11h 09m
Length of Day
10h 13m
Full, 100% of the Moon is Illuminated
Jan 27
Full
Feb 3
Last Quarter
Feb 10
New
Feb 17
First Quarter
Feb 25
Full

Hourly Weather History & Observations

Time (CST) Temp. Windchill Dew Point Humidity Pressure Visibility Wind Dir Wind Speed Gust Speed Precip Events Conditions
12:15 AM 44.6 °F 37.4 °F 32.0 °F 61% 29.86 in 10.0 mi South 16.1 mph - N/A   Partly Cloudy
12:35 AM 44.6 °F 37.2 °F 33.8 °F 66% 29.86 in 10.0 mi South 17.3 mph - N/A   Partly Cloudy
12:55 AM 46.4 °F 39.5 °F 33.8 °F 62% 29.85 in 10.0 mi South 17.3 mph - N/A   Clear
1:15 AM 46.4 °F 39.5 °F 33.8 °F 62% 29.84 in 10.0 mi South 17.3 mph - N/A   Partly Cloudy
1:35 AM 46.4 °F 38.7 °F 35.6 °F 66% 29.83 in 10.0 mi South 20.7 mph - N/A   Mostly Cloudy
1:55 AM 46.4 °F 38.7 °F 35.6 °F 66% 29.82 in 10.0 mi South 20.7 mph - N/A   Scattered Clouds
2:15 AM 46.4 °F 39.5 °F 33.8 °F 62% 29.82 in 10.0 mi South 17.3 mph 24.2 mph N/A   Clear
2:35 AM 46.4 °F 39.2 °F 35.6 °F 66% 29.82 in 10.0 mi South 18.4 mph - N/A   Mostly Cloudy
2:55 AM 46.4 °F 39.2 °F 35.6 °F 66% 29.81 in 10.0 mi South 18.4 mph - N/A   Scattered Clouds
3:15 AM 44.6 °F 36.9 °F 35.6 °F 71% 29.80 in 10.0 mi South 18.4 mph - N/A   Clear
3:35 AM 46.4 °F 39.5 °F 35.6 °F 66% 29.79 in 10.0 mi South 17.3 mph - N/A   Clear
3:55 AM 46.4 °F 39.0 °F 35.6 °F 66% 29.77 in 10.0 mi South 19.6 mph - N/A   Clear
4:15 AM 46.4 °F 39.2 °F 37.4 °F 71% 29.77 in 10.0 mi SSW 18.4 mph 24.2 mph N/A   Clear
4:35 AM 46.4 °F 38.3 °F 37.4 °F 71% 29.76 in 10.0 mi South 23.0 mph - N/A   Clear
4:55 AM 46.4 °F 38.7 °F 37.4 °F 71% 29.75 in 10.0 mi SSW 20.7 mph 26.5 mph N/A   Clear
5:15 AM 46.4 °F 39.0 °F 37.4 °F 71% 29.75 in 10.0 mi South 19.6 mph 25.3 mph N/A   Clear
5:35 AM 46.4 °F 39.0 °F 39.2 °F 76% 29.74 in 10.0 mi SSW 19.6 mph - N/A   Clear
5:55 AM 46.4 °F 38.7 °F 39.2 °F 76% 29.73 in 10.0 mi SSW 20.7 mph 26.5 mph N/A   Clear
6:15 AM 46.4 °F 38.3 °F 39.2 °F 76% 29.73 in 10.0 mi SSW 23.0 mph 27.6 mph N/A   Clear
6:35 AM 48.2 °F - 39.2 °F 71% 29.73 in 10.0 mi SSW 23.0 mph 27.6 mph N/A   Clear
6:55 AM 48.2 °F - 41.0 °F 76% 29.73 in 10.0 mi SSW 25.3 mph 28.8 mph N/A   Clear
7:15 AM 48.2 °F - 39.2 °F 71% 29.73 in 10.0 mi SSW 17.3 mph - N/A   Clear
7:35 AM 48.2 °F - 39.2 °F 71% 29.73 in 10.0 mi SSW 20.7 mph 26.5 mph N/A   Clear
7:55 AM 48.2 °F - 39.2 °F 71% 29.74 in 10.0 mi SSW 19.6 mph - N/A   Clear
8:15 AM 48.2 °F - 39.2 °F 71% 29.74 in 10.0 mi SSW 18.4 mph - N/A   Clear
8:35 AM 48.2 °F - 39.2 °F 71% 29.75 in 10.0 mi SW 17.3 mph - N/A   Clear
8:55 AM 50.0 °F - 41.0 °F 71% 29.75 in 10.0 mi SSW 18.4 mph - N/A   Clear
9:15 AM 51.8 °F - 42.8 °F 71% 29.75 in 10.0 mi SSW 18.4 mph 26.5 mph N/A   Clear
9:35 AM 53.6 °F - 42.8 °F 67% 29.74 in 10.0 mi SSW 23.0 mph 27.6 mph N/A   Clear
9:55 AM 55.4 °F - 42.8 °F 63% 29.75 in 10.0 mi SW 23.0 mph 29.9 mph N/A   Clear
10:15 AM 57.2 °F - 42.8 °F 59% 29.75 in 10.0 mi SW 25.3 mph 31.1 mph N/A   Clear
10:35 AM 59.0 °F - 42.8 °F 55% 29.75 in 10.0 mi SW 26.5 mph 34.5 mph N/A   Clear
10:55 AM 60.8 °F - 42.8 °F 52% 29.76 in 10.0 mi SW 27.6 mph 35.7 mph N/A   Clear
11:15 AM 62.6 °F - 42.8 °F 48% 29.77 in 10.0 mi WSW 27.6 mph 36.8 mph N/A   Clear
11:35 AM 64.4 °F - 42.8 °F 45% 29.76 in 10.0 mi SW 25.3 mph 32.2 mph N/A   Clear
11:55 AM 66.2 °F - 42.8 °F 43% 29.75 in 10.0 mi SW 26.5 mph 32.2 mph N/A   Clear
12:15 PM 66.2 °F - 42.8 °F 43% 29.75 in 10.0 mi WSW 25.3 mph - N/A   Clear
12:35 PM 69.8 °F - 42.8 °F 38% 29.74 in 10.0 mi WSW 23.0 mph 29.9 mph N/A   Clear
12:55 PM 69.8 °F - 41.0 °F 35% 29.73 in 10.0 mi WSW 21.9 mph 26.5 mph N/A   Clear
1:15 PM 71.6 °F - 41.0 °F 33% 29.72 in 10.0 mi SW 21.9 mph 26.5 mph N/A   Clear
1:35 PM 71.6 °F - 41.0 °F 33% 29.72 in 10.0 mi West 18.4 mph 27.6 mph N/A   Clear
1:55 PM 71.6 °F - 39.2 °F 31% 29.71 in 10.0 mi West 18.4 mph 24.2 mph N/A   Clear
2:15 PM 71.6 °F - 39.2 °F 31% 29.70 in 10.0 mi West 12.7 mph - N/A   Clear
2:35 PM 71.6 °F - 37.4 °F 29% 29.70 in 10.0 mi WNW 15.0 mph 18.4 mph N/A   Clear
2:55 PM 71.6 °F - 37.4 °F 29% 29.71 in 10.0 mi West 10.4 mph 16.1 mph N/A   Clear
3:15 PM 71.6 °F - 37.4 °F 29% 29.71 in 10.0 mi WNW 8.1 mph 17.3 mph N/A   Clear
3:35 PM 71.6 °F - 37.4 °F 29% 29.71 in 10.0 mi NW 10.4 mph - N/A   Clear
3:55 PM 71.6 °F - 37.4 °F 29% 29.71 in 10.0 mi NNW 6.9 mph - N/A   Clear
4:15 PM 71.6 °F - 37.4 °F 29% 29.71 in 10.0 mi North 11.5 mph - N/A   Clear
4:35 PM 69.8 °F - 37.4 °F 31% 29.71 in 10.0 mi North 10.4 mph - N/A   Clear
4:55 PM 68.0 °F - 35.6 °F 30% 29.72 in 10.0 mi North 12.7 mph - N/A   Clear
5:15 PM 66.2 °F - 35.6 °F 32% 29.72 in 10.0 mi NNE 11.5 mph - N/A   Clear
5:35 PM 64.4 °F - 35.6 °F 34% 29.73 in 10.0 mi NE 9.2 mph - N/A   Clear
5:55 PM 62.6 °F - 35.6 °F 37% 29.73 in 10.0 mi NE 10.4 mph - N/A   Clear
6:15 PM 60.8 °F - 35.6 °F 39% 29.74 in 10.0 mi NE 9.2 mph - N/A   Clear
6:35 PM 59.0 °F - 35.6 °F 42% 29.74 in 10.0 mi ENE 8.1 mph - N/A   Clear
6:55 PM 57.2 °F - 35.6 °F 44% 29.75 in 10.0 mi ENE 10.4 mph - N/A   Clear
7:15 PM 57.2 °F - 35.6 °F 44% 29.76 in 10.0 mi ESE 6.9 mph - N/A   Clear
7:35 PM 55.4 °F - 35.6 °F 47% 29.77 in 10.0 mi East 6.9 mph - N/A   Clear
7:55 PM 53.6 °F - 33.8 °F 47% 29.77 in 10.0 mi East 6.9 mph - N/A   Clear
8:15 PM 50.0 °F - 33.8 °F 54% 29.78 in 10.0 mi Calm Calm - N/A   Clear
8:35 PM 51.8 °F - 35.6 °F 54% 29.78 in 10.0 mi East 3.5 mph - N/A   Clear
8:55 PM 51.8 °F - 33.8 °F 50% 29.78 in 10.0 mi East 8.1 mph - N/A   Clear
9:15 PM 51.8 °F - 33.8 °F 50% 29.78 in 10.0 mi East 13.8 mph - N/A   Clear
9:35 PM 51.8 °F - 35.6 °F 54% 29.78 in 10.0 mi East 12.7 mph - N/A   Clear
9:55 PM 50.0 °F - 35.6 °F 58% 29.78 in 10.0 mi East 12.7 mph - N/A   Clear
10:15 PM 48.2 °F - 33.8 °F 58% 29.78 in 10.0 mi ESE 8.1 mph - N/A   Clear
10:35 PM 46.4 °F 41.9 °F 33.8 °F 62% 29.78 in 10.0 mi ESE 9.2 mph - N/A   Clear
10:55 PM 46.4 °F 41.9 °F 33.8 °F 62% 29.78 in 10.0 mi ESE 9.2 mph - N/A   Clear
11:15 PM 42.8 °F 40.1 °F 30.2 °F 61% 29.78 in 10.0 mi SE 4.6 mph - N/A   Clear
11:35 PM 41.0 °F 38.0 °F 30.2 °F 65% 29.78 in 10.0 mi South 4.6 mph - N/A   Clear
11:55 PM 37.4 °F 32.1 °F 26.6 °F 65% 29.78 in 10.0 mi SSW 6.9 mph - N/A   Clear